Weather History for Nasa Shuttle, FL

Change the Weather History Date:

Saturday, January 19, 2013

  Actual Average Record
Temperature  
Mean Temperature 69 °F -  
Max Temperature 72 °F 68 °F 82 °F (2001)
Min Temperature 64 °F 48 °F 30 °F (2014)
Cooling Degree Days 4    
Growing Degree Days 19 (Base 50)    
Moisture  
Dew Point 61 °F    
Average Humidity 77    
Maximum Humidity 94    
Minimum Humidity 64    
Precipitation  
Precipitation 0.08 in - - ()
Sea Level Pressure  
Sea Level Pressure 30.24 in    
Wind  
Wind Speed 12 mph (ENE)    
Max Wind Speed 16 mph    
Max Gust Speed 25 mph    
Visibility 8 miles    
Events Rain    
Averages and records for this station are not official NWS values.
T = Trace of Precipitation, MM = Missing Value Source: NWS Daily Summary

Daily Weather History Graph

Daily Weather History Graph

Search for Another Location

Airport:

Trip Planner

Search our weather history database for the weather conditions in past years. The results will help you decide how hot, cold, wet, or windy it might be!

Date:

Astronomy

Jan. 19, 2013 Rise Set
Actual Time 7:15 AM EST 5:51 PM EST
Civil Twilight 6:50 AM EST 6:16 PM EST
Nautical Twilight 6:21 AM EST 6:45 PM EST
Astronomical Twilight 5:53 AM EST 7:14 PM EST
Moon 12:11 PM EST (1/19) 12:55 AM EST (1/19)
Length of Visible Light 11h 26m
Length of Day
10h 35m
First Quarter, 57% of the Moon is Illuminated
Jan 19
First Quarter
Jan 26
Full
Feb 3
Last Quarter
Feb 10
New
Feb 17
First Quarter

Hourly Weather History & Observations

Time (EST) Temp. Dew Point Humidity Pressure Visibility Wind Dir Wind Speed Gust Speed Precip Events Conditions
12:55 AM 66.0 °F 54.0 °F 65% 30.26 in 10.0 mi East 16.1 mph 25.3 mph N/A   Overcast
1:55 AM 66.0 °F 54.1 °F 65% 30.25 in 10.0 mi East 15.0 mph 21.9 mph N/A   Overcast
2:55 AM 66.0 °F 54.7 °F 67% 30.23 in 10.0 mi ENE 12.7 mph 20.7 mph N/A   Overcast
3:55 AM 66.0 °F 55.4 °F 69% 30.23 in 10.0 mi ENE 12.7 mph - N/A   Overcast
4:55 AM 66.4 °F 55.6 °F 68% 30.23 in 10.0 mi ENE 10.4 mph - N/A   Overcast
5:55 AM 66.0 °F 56.8 °F 72% 30.24 in 10.0 mi ENE 12.7 mph 17.3 mph N/A   Overcast
6:55 AM 66.4 °F 56.8 °F 71% 30.25 in 10.0 mi NE 8.1 mph - N/A   Overcast
7:08 AM 66.2 °F 57.2 °F 73% 30.25 in 10.0 mi NE 9.2 mph - N/A Rain Light Rain
7:22 AM 66.2 °F 57.2 °F 73% 30.25 in 10.0 mi ENE 11.5 mph - N/A   Overcast
7:38 AM 66.2 °F 57.2 °F 73% 30.26 in 10.0 mi ENE 8.1 mph - N/A   Light Drizzle
7:43 AM 66.2 °F 57.2 °F 73% 30.26 in 10.0 mi ENE 11.5 mph - N/A   Overcast
7:55 AM 66.4 °F 57.0 °F 72% 30.26 in 10.0 mi ENE 8.1 mph - 0.00 in   Overcast
8:55 AM 69.3 °F 57.9 °F 67% 30.27 in 10.0 mi ENE 10.4 mph - N/A   Mostly Cloudy
9:44 AM 69.8 °F 59.0 °F 68% 30.30 in 10.0 mi ENE 10.4 mph 17.3 mph N/A Rain Light Rain
9:55 AM 69.4 °F 59.7 °F 71% 30.30 in 10.0 mi ENE 11.5 mph - 0.00 in Rain Light Rain
9:56 AM 69.8 °F 59.0 °F 68% 30.30 in 10.0 mi ENE 11.5 mph - N/A   Overcast
10:29 AM 69.8 °F 59.0 °F 68% 30.30 in 10.0 mi ENE 11.5 mph 19.6 mph N/A Rain Light Rain
10:38 AM 69.8 °F 59.0 °F 68% 30.30 in 10.0 mi NE 10.4 mph - N/A   Overcast
10:55 AM 70.2 °F 59.4 °F 69% 30.29 in 10.0 mi ENE 11.5 mph 18.4 mph 0.00 in   Mostly Cloudy
11:46 AM 71.6 °F 59.0 °F 64% 30.26 in 10.0 mi ENE 16.1 mph - N/A Rain Light Rain
11:55 AM 69.3 °F 61.5 °F 76% 30.26 in 10.0 mi ENE 13.8 mph - 0.00 in Rain Light Rain
11:59 AM 69.8 °F 62.6 °F 78% 30.26 in 10.0 mi ENE 10.4 mph - N/A Rain Light Rain
12:04 PM 69.8 °F 62.6 °F 78% 30.26 in 10.0 mi ENE 15.0 mph - N/A   Overcast
12:09 PM 71.6 °F 60.8 °F 69% 30.26 in 10.0 mi ENE 12.7 mph - N/A   Overcast
12:12 PM 71.6 °F 60.8 °F 69% 30.25 in 10.0 mi ENE 10.4 mph - N/A   Overcast
12:25 PM 71.6 °F 60.8 °F 69% 30.25 in 10.0 mi East 12.7 mph 19.6 mph N/A   Overcast
12:26 PM 71.6 °F 60.8 °F 69% 30.25 in 10.0 mi ENE 11.5 mph 19.6 mph N/A   Light Drizzle
12:34 PM 68.0 °F 62.6 °F 83% 30.25 in 9.0 mi East 15.0 mph - N/A Rain Light Rain
12:36 PM 68.0 °F 62.6 °F 83% 30.25 in 7.0 mi ESE 11.5 mph - N/A Rain Light Rain
12:37 PM 68.0 °F 62.6 °F 83% 30.25 in 6.0 mi ESE 10.4 mph - N/A Rain Heavy Rain
12:40 PM 66.2 °F 64.4 °F 94% 30.25 in 2.5 mi East 12.7 mph 19.6 mph N/A Rain Heavy Rain
12:42 PM 66.2 °F 64.4 °F 94% 30.24 in 2.0 mi East 9.2 mph 19.6 mph N/A Rain Rain
12:43 PM 66.2 °F 64.4 °F 94% 30.24 in 1.8 mi East 10.4 mph 19.6 mph N/A Rain Light Rain
12:44 PM 66.2 °F 64.4 °F 94% 30.24 in 1.5 mi East 11.5 mph 19.6 mph N/A Rain Light Rain
12:48 PM 68.0 °F 66.2 °F 94% 30.23 in 1.2 mi NE 9.2 mph 19.6 mph N/A Rain Light Rain
12:49 PM 68.0 °F 66.2 °F 94% 30.23 in 1.2 mi NE 9.2 mph - N/A Rain Light Rain
12:53 PM 68.0 °F 66.2 °F 94% 30.23 in 2.0 mi NE 10.4 mph - N/A Rain Light Rain
12:55 PM 68.4 °F 66.2 °F 93% 30.23 in 3.0 mi NE 9.2 mph - 0.08 in   Light Drizzle
12:57 PM 68.0 °F 66.2 °F 94% 30.23 in 6.0 mi NE 10.4 mph - N/A   Overcast
1:10 PM 69.8 °F 62.6 °F 78% 30.22 in 10.0 mi ENE 12.7 mph 17.3 mph N/A   Overcast
1:55 PM 72.5 °F 61.9 °F 69% 30.19 in 10.0 mi ENE 10.4 mph 18.4 mph 0.00 in   Partly Cloudy
2:55 PM 71.8 °F 61.5 °F 70% 30.18 in 10.0 mi ENE 13.8 mph 19.6 mph N/A   Scattered Clouds
3:55 PM 69.8 °F 61.5 °F 75% 30.17 in 10.0 mi ENE 10.4 mph - N/A   Overcast
4:55 PM 69.3 °F 61.2 °F 75% 30.17 in 10.0 mi ENE 6.9 mph 19.6 mph N/A   Overcast
5:55 PM 68.5 °F 61.0 °F 77% 30.18 in 10.0 mi East 6.9 mph - N/A   Overcast
6:55 PM 68.2 °F 60.1 °F 75% 30.19 in 10.0 mi ENE 6.9 mph - N/A   Overcast
7:55 PM 68.0 °F 61.7 °F 80% 30.19 in 10.0 mi ENE 8.1 mph - N/A   Overcast
8:55 PM 67.5 °F 61.5 °F 81% 30.19 in 10.0 mi East 4.6 mph - N/A   Overcast
9:55 PM 67.8 °F 61.9 °F 81% 30.18 in 10.0 mi Calm Calm - N/A   Overcast
10:55 PM 68.2 °F 62.6 °F 82% 30.17 in 10.0 mi North 4.6 mph - N/A   Overcast
10:57 PM 68.0 °F 62.6 °F 83% 30.17 in 10.0 mi North 5.8 mph - N/A   Overcast
11:55 PM 64.6 °F 62.6 °F 93% 30.16 in 10.0 mi NNW 6.9 mph - N/A   Overcast